Weather History for East Milton, MA

Change the Weather History Date:

Tuesday, July 29, 2014

  Actual Average (KBOS) Record (KBOS)
Temperature  
Mean Temperature 68 °F 74 °F  
Max Temperature 77 °F 82 °F 97 °F (1931)
Min Temperature 60 °F 66 °F 55 °F (1880)
Degree Days  
Heating Degree Days 0 0  
Month to date heating degree days 0  
Since 1 June heating degree days 55  
Since 1 July heating degree days 0  
Cooling Degree Days 4 9  
Month to date cooling degree days 250  
Year to date cooling degree days 416  
Since 1 June cooling degree days 386  
Growing Degree Days 18 (Base 50)    
Moisture  
Dew Point 57 °F    
Average Humidity 70    
Maximum Humidity 93    
Minimum Humidity 50    
Precipitation  
Precipitation 0.00 in 0.12 in 1.81 in (1901)
Month to date precipitation 3.17  
Year to date precipitation 25.01  
Sea Level Pressure  
Sea Level Pressure 29.82 in    
Wind  
Wind Speed 11 mph (West)    
Max Wind Speed 16 mph    
Max Gust Speed 22 mph    
T = Trace of Precipitation, MM = Missing Value Source: NWS Daily Summary

Daily Weather History Graph

Daily Weather History Graph

Search for Another Location

Airport:

Trip Planner

Search our weather history database for the weather conditions in past years. The results will help you decide how hot, cold, wet, or windy it might be!

Date:

Astronomy

Jul. 29, 2014 Rise Set
Actual Time 5:34 AM EDT 8:06 PM EDT
Civil Twilight 5:02 AM EDT 8:38 PM EDT
Nautical Twilight 4:22 AM EDT 9:18 PM EDT
Astronomical Twilight 3:37 AM EDT 10:03 PM EDT
Moon 8:11 AM EDT (7/29) 9:13 PM EDT (7/29)
Length of Visible Light 15h 36m
Length of Day
14h 32m
Waxing Crescent, 7% of the Moon is Illuminated
Jul 29
Waxing Crescent
Aug 3
First Quarter
Aug 10
Full
Aug 17
Last Quarter
Aug 25
New

Hourly Weather History & Observations

Time (EDT) Temp. Dew Point Humidity Pressure Visibility Wind Dir Wind Speed Gust Speed Precip Events Conditions
12:54 AM 64.9 °F 63.0 °F 93% 29.59 in - WSW 11.5 mph - N/A   Unknown
1:54 AM 64.0 °F 62.1 °F 93% 29.63 in - West 11.5 mph - N/A   Unknown
2:54 AM 63.0 °F 60.1 °F 90% 29.65 in - West 15.0 mph 21.9 mph N/A   Unknown
3:54 AM 61.0 °F 59.0 °F 93% 29.67 in - West 13.8 mph - N/A   Unknown
4:54 AM 60.1 °F 57.9 °F 93% 29.71 in - West 12.7 mph - N/A   Unknown
5:54 AM 60.1 °F 57.0 °F 90% 29.73 in - West 12.7 mph - N/A   Unknown
6:54 AM 61.0 °F 55.9 °F 83% 29.75 in - WNW 12.7 mph - N/A   Unknown
7:54 AM 64.0 °F 55.9 °F 75% 29.78 in - NW 10.4 mph 17.3 mph N/A   Unknown
8:54 AM 66.0 °F 55.0 °F 68% 29.80 in - WNW 16.1 mph 19.6 mph N/A   Unknown
9:54 AM 69.1 °F 57.0 °F 65% 29.81 in - WNW 8.1 mph - N/A   Unknown
10:54 AM 71.1 °F 55.9 °F 59% 29.82 in - WNW 9.2 mph 17.3 mph N/A   Unknown
11:54 AM 73.0 °F 59.0 °F 61% 29.83 in - Variable 6.9 mph - N/A   Unknown
12:54 PM 73.0 °F 57.9 °F 59% 29.83 in - West 9.2 mph - N/A   Unknown
1:54 PM 73.9 °F 57.9 °F 57% 29.84 in - West 11.5 mph - N/A   Unknown
2:54 PM 77.0 °F 57.0 °F 50% 29.86 in - Variable 6.9 mph - N/A   Unknown
3:54 PM 73.9 °F 55.0 °F 52% 29.87 in - West 6.9 mph - N/A   Unknown
4:54 PM 75.0 °F 55.0 °F 50% 29.89 in - West 11.5 mph - N/A   Unknown
5:54 PM 73.0 °F 55.9 °F 55% 29.90 in - West 11.5 mph - N/A   Unknown
6:54 PM 70.0 °F 55.9 °F 61% 29.93 in - West 11.5 mph - N/A   Unknown
7:54 PM 68.0 °F 55.0 °F 63% 29.94 in - West 9.2 mph - N/A   Unknown
8:54 PM 66.9 °F 55.9 °F 68% 29.95 in - West 6.9 mph - N/A   Unknown
9:54 PM 64.9 °F 55.0 °F 70% 29.96 in - West 9.2 mph - N/A   Unknown
10:54 PM 64.0 °F 54.0 °F 70% 29.96 in - West 9.2 mph - N/A   Unknown
11:54 PM 63.0 °F 54.0 °F 72% 29.98 in - West 9.2 mph - N/A   Unknown